Gene Autry, OK

8:50 AM CDT on August 29, 2016 (GMT -0500)
Ardmore Municipal

Weather History for KADM - February, 2015

Change the Weather History Date:

Wednesday, February 25, 2015

  Actual Average Record
Temperature  
Mean Temperature 42 °F -  
Max Temperature 55 °F 55 °F 80 °F (2008)
Min Temperature 30 °F 37 °F 17 °F (2003)
Degree Days  
Heating Degree Days 22    
Moisture  
Dew Point 31 °F    
Average Humidity 80    
Maximum Humidity 100    
Minimum Humidity 38    
Precipitation  
Precipitation 0.00 in - - ()
Sea Level Pressure  
Sea Level Pressure 29.90 in    
Wind  
Wind Speed 2 mph (SE)    
Max Wind Speed 9 mph    
Max Gust Speed -    
Visibility 10 miles    
Events      
Averages and records for this station are not official NWS values.
T = Trace of Precipitation, MM = Missing Value Source: NWS Daily Summary

Daily Weather History Graph

Daily Weather History Graph

Search for Another Location

Airport or City:

Trip Planner

Search our weather history database for the weather conditions in past years. The results will help you decide how hot, cold, wet, or windy it might be!

Date:

Astronomy

Feb. 25, 2015 Rise Set
Actual Time 7:02 AM CST 6:20 PM CST
Civil Twilight 6:36 AM CST 6:45 PM CST
Nautical Twilight 6:07 AM CST 7:15 PM CST
Astronomical Twilight 5:38 AM CST 7:44 PM CST
Moon 11:42 AM CST (2/25) 12:53 AM CST (2/25)
Length of Visible Light 12h 09m
Length of Day
11h 18m
Waxing Crescent, 50% of the Moon is Illuminated
Feb 25
Waxing Crescent
Mar 5
Full
Mar 13
Last Quarter
Mar 20
New
Mar 27
First Quarter

Hourly Weather History & Observations

Time (CST) Temp. Windchill Dew Point Humidity Pressure Visibility Wind Dir Wind Speed Gust Speed Precip Events Conditions
12:15 AM 30.0 °F - 27.5 °F 90% 30.02 in 10.0 mi Calm Calm - N/A   Scattered Clouds
12:35 AM 30.2 °F - 28.0 °F 92% 30.01 in 10.0 mi Calm Calm - N/A   Mostly Cloudy
12:55 AM 30.6 °F - 28.4 °F 92% 30.01 in 10.0 mi Calm Calm - N/A   Overcast
1:15 AM 30.6 °F - 28.8 °F 93% 30.00 in 10.0 mi Calm Calm - N/A   Overcast
1:35 AM 30.9 °F 26.2 °F 28.4 °F 90% 29.98 in 10.0 mi North 4.6 mph - N/A   Overcast
1:55 AM 31.1 °F - 28.4 °F 90% 29.96 in 10.0 mi Calm Calm - N/A   Overcast
2:15 AM 31.6 °F - 28.9 °F 90% 29.95 in 10.0 mi Calm Calm - N/A   Overcast
2:35 AM 31.5 °F 26.8 °F 29.1 °F 91% 29.94 in 10.0 mi NNW 4.6 mph - N/A   Mostly Cloudy
2:55 AM 31.5 °F - 28.8 °F 90% 29.93 in 10.0 mi Calm Calm - N/A   Mostly Cloudy
3:15 AM 31.1 °F 27.7 °F 29.5 °F 94% 29.93 in 10.0 mi South 3.5 mph - N/A   Mostly Cloudy
3:35 AM 31.5 °F - 29.5 °F 92% 29.92 in 10.0 mi Calm Calm - N/A   Mostly Cloudy
3:55 AM 31.1 °F - 29.1 °F 92% 29.93 in 10.0 mi Calm Calm - N/A   Overcast
4:15 AM 31.5 °F - 29.3 °F 92% 29.93 in 10.0 mi Calm Calm - N/A   Overcast
4:35 AM 31.1 °F - 29.3 °F 93% 29.92 in 10.0 mi Calm Calm - N/A   Scattered Clouds
4:55 AM 30.9 °F 26.2 °F 28.6 °F 91% 29.92 in 10.0 mi SSW 4.6 mph - N/A   Clear
5:15 AM 30.9 °F 25.2 °F 29.1 °F 93% 29.94 in 10.0 mi South 5.8 mph - N/A   Scattered Clouds
5:35 AM 31.1 °F - 28.4 °F 90% 29.93 in 10.0 mi Calm Calm - N/A   Overcast
6:48 AM 32.0 °F - 30.2 °F 93% 29.94 in 1.5 mi Calm Calm - N/A   Ice Pellets
6:55 AM - - - N/A% 29.91 in 7.0 mi Calm Calm - N/A   Scattered Clouds
7:55 AM 30.2 °F - 30.2 °F 100% 29.92 in 5.0 mi Calm Calm - N/A   Overcast
8:55 AM 32.0 °F - 30.2 °F 93% 29.94 in 10.0 mi Calm Calm - N/A   Overcast
9:55 AM 35.6 °F - 30.2 °F 81% 29.91 in 10.0 mi Calm Calm - N/A   Clear
10:55 AM 39.2 °F 35.9 °F 30.2 °F 70% 29.90 in 10.0 mi SW 4.6 mph - N/A   Clear
11:55 AM 44.6 °F - 32.0 °F 61% 29.89 in 10.0 mi Calm Calm - N/A   Clear
12:55 PM 48.2 °F - 30.2 °F 50% 29.83 in 10.0 mi WSW 4.6 mph - N/A   Clear
1:55 PM 51.8 °F - 32.0 °F 47% 29.79 in 10.0 mi WSW 3.5 mph - N/A   Clear
2:55 PM 53.6 °F - 32.0 °F 44% 29.77 in 10.0 mi WSW 9.2 mph - N/A   Clear
3:55 PM 55.4 °F - 32.0 °F 41% 29.77 in 10.0 mi West 8.1 mph - N/A   Clear
4:55 PM 55.4 °F - 30.2 °F 38% 29.76 in 10.0 mi NE 3.5 mph - N/A   Clear
5:55 PM 53.6 °F - 30.2 °F 41% 29.78 in 10.0 mi Calm Calm - N/A   Clear
6:55 PM 50.0 °F - 32.0 °F 50% 29.81 in 10.0 mi SE 5.8 mph - N/A   Clear
7:55 PM 41.0 °F 36.4 °F 32.0 °F 70% 29.85 in 10.0 mi ESE 6.9 mph - N/A   Clear
8:55 PM 39.2 °F 35.0 °F 32.0 °F 75% 29.87 in 10.0 mi East 5.8 mph - N/A   Clear
9:15 PM 38.1 °F 35.7 °F 32.2 °F 79% 29.87 in 10.0 mi East 3.5 mph - N/A   Clear
9:35 PM 36.5 °F 33.9 °F 32.0 °F 84% 29.88 in 10.0 mi East 3.5 mph - N/A   Clear
9:55 PM 37.4 °F 34.9 °F 33.8 °F 87% 29.89 in 10.0 mi East 3.5 mph - N/A   Clear
10:15 PM 37.4 °F 33.8 °F 33.6 °F 86% 29.89 in 10.0 mi East 4.6 mph - N/A   Clear
10:35 PM 36.7 °F 34.1 °F 33.6 °F 89% 29.90 in 10.0 mi East 3.5 mph - N/A   Clear
10:55 PM 37.4 °F 34.9 °F 33.8 °F 87% 29.90 in 10.0 mi East 3.5 mph - N/A   Clear
11:15 PM 35.8 °F 33.0 °F 33.8 °F 92% 29.90 in 10.0 mi ESE 3.5 mph - N/A   Clear
11:35 PM 35.8 °F - 33.8 °F 92% 29.91 in 10.0 mi Calm Calm - N/A   Clear
11:55 PM 35.8 °F 33.0 °F 33.8 °F 92% 29.92 in 10.0 mi East 3.5 mph - N/A   Clear